Location: Unspecified
(44.4377°N, 88.0525°W)
Time: 18:30:36
(UTC-06:00)

Okean 3 - Visible Passes

Search period start: 12 February 2016 00:00
Search period end: 22 February 2016 00:00
Orbit: 578 x 605 km, 82.5° (Epoch: 11 February)

Date Brightness Start Highest point End Pass type
(mag) Time Alt. Az. Time Alt. Az. Time Alt. Az.
12 Feb 6.1 06:17:30 10° SE 06:20:56 25° E 06:24:22 10° NE visible
12 Feb 3.4 17:56:57 10° N 18:01:10 75° E 18:05:23 10° SSE visible
13 Feb 5.3 06:25:38 10° SSE 06:29:30 37° E 06:33:22 10° NNE visible
13 Feb 3.8 18:05:38 10° NNW 18:09:50 72° W 18:14:02 10° S visible
14 Feb 4.7 18:14:25 10° NNW 18:18:28 46° W 18:22:30 10° SSW visible
15 Feb 5.6 18:23:19 10° NNW 18:27:02 31° W 18:30:46 10° SSW visible
16 Feb 7.0 05:17:13 10° ESE 05:18:41 12° E 05:20:11 10° ENE visible
16 Feb 6.4 18:32:24 10° NW 18:35:34 21° W 18:38:45 10° SW visible
17 Feb 6.6 05:24:24 10° SE 05:27:10 17° E 05:29:57 10° NE visible
17 Feb 6.8 18:41:48 10° NW 18:44:05 14° W 18:46:21 10° WSW visible
18 Feb 5.9 05:32:14 10° SE 05:35:41 25° E 05:39:09 10° NNE visible
19 Feb 5.1 05:40:23 10° SSE 05:44:14 38° E 05:48:08 10° NNE visible
20 Feb 4.1 05:48:44 10° S 05:52:50 58° E 05:56:57 10° NNE visible
21 Feb 3.4 05:57:17 10° S 06:01:28 90° NNE 06:05:40 10° N visible
